066  
ASPQ40 PGUM 291512  
RWRPQ  
WEATHER ROUNDUP FOR THE MARIANAS AND MICRONESIA  
NATIONAL WEATHER SERVICE TIYAN GU  
100 AM CHST THU MAR 30 2017  
 
GUZ001>004-291600-  
MARIANA ISLANDS-  
 
CITY SKY/WX TMP DP RH WIND PRES REMARKS
 
GUAM AIRPORT LGT RAIN 75 75 100 NE13 30.01F FOG  
ANDERSEN AFB RAIN 75 73 94 E22 30.03S FOG  
ROTA AIRPORT NOT AVBL  
TINIAN AP NOT AVBL  
SAIPAN AP CLOUDY 79 75 89 NE17G25 30.02F  
 

 
 
PMZ161-291600-  
REPUBLIC OF PALAU-  
 
CITY SKY/WX TMP DP RH WIND PRES REMARKS
 
KOROR AP NOT AVBL  
KOROR WSO LGT RAIN 81 77 89 CALM 29.93F  
 

 
 
PMZ171>174-291600-  
FEDERATED STATES OF MICRONESIA-  
 
CITY SKY/WX TMP DP RH WIND PRES REMARKS
 
YAP AIRPORT CLOUDY 82 77 83 VRB6 29.94S HX 91  
CHUUK AP LGT RAIN 79 75 89 NE14 29.88S  
POHNPEI AP NOT AVBL  
POHNPEI WSO CLOUDY 82 70 65 NE8 29.89F  
KOSRAE AP NOT AVBL  
 

 
 
PMZ181-291600-  
REPUBLIC OF THE MARSHALL ISLANDS-  
 
CITY SKY/WX TMP DP RH WIND PRES REMARKS
 
KWAJALEIN AP PTCLDY 81 72 74 E17 29.86S  
MAJURO AP NOT AVBL  
MAJURO WSO MOCLDY 82 73 74 NE15 29.80F  
 

 
 
 
 
CLICK HERE TO GO TO PREVIOUS BULLETINS.

The Nexlab GU Page Main Text Page